SCP
0 0 0 0 0 0 0 0 0 0 0 0 0 0 0 0 0 0 0 0 0 0 0 0 0 0 0 0 0 0 0 0
0 0 0 0 0 0 0 0 0 0 0 0 0 0 0 0 0 0 0 0 0 0 0 0 0 0 0 0 0 0 0 0
0 0 0 0 0 0 0 0 0 0 0 0 0 0 0 0 0 0 0 0 0 0 0 0 0 0 0 0 0 0 0 0
0 0 0 0 0 0 0 0 0 0 0 0 0 0 0 0 0 0 0 0 0 0 0 0 0 0 0 0 0 0 0 0
-0 -0 0 0 0 0 0 0 0 0 0 0 0 0 0 0 0 0 0 0 0 0 0 0 0 0 0 0 0 0 0 0
-0 -0 -0 0 0 0 0 0 0 0 0 0 0 0 0 0 0 0 0 0 0 0 0 0 0 0 0 0 0 0 0 0
0 -0 -0 0 0 0 0 0 0 0 0 0 0 0 0 0 0 0 0 0 0 0 0 0 0 0 0 0 0 0 0 0
0 0 0 0 -0 -0 -0 0 0 0 0 0 0 0 0 0 0 0 0 0 0 0 0 0 0 0 0 0 0 0 0 0
0 -0 -0 -0 -0 -0 -0 -0 0 0 0 0 0 0 0 0 0 0 0 0 0 0 0 0 0 0 0 0 0 0 0 0
0 0 -0 -0 -0 0 0 0 0 0 -0 0 0 0 0 0 0 0 0 0 0 0 0 0 0 0 0 0 0 0 0 0
0 0 0 0 0 0 0 0 0 0 0 -0 0 0 -0 0 0 0 0 0 0 0 0 0 0 0 0 0 0 0 0 0
0 0 0 0 0 0 0 0 0 0 0 -0 -0 0 0 0 0 0 0 0 0 0 0 0 0 0 -0 0 0 0 0 0
0 0 0 0 0 -0 -0 -0 -0 -0 -0 0 0 0 0 0 -0 0 0 0 0 0 0 0 0 0 0 0 0 0 0 0
0 0 0 0 0 -0 -0 -0 -0 -0 -0 -0 -0 -0 -0 -0 -0 0 0 -0 -0 0 0 0 0 0 0 0 0 0 0 0
0 0 0 0 -0 -0 -0 -0 -0 -0 -0 -0 -0 -0 0 -0 -0 -0 0 0 0 0 0 0 0 0 0 0 0 0 0 0
0 0 -0 -0 -0 -0 -0 -0 0 -0 -0 -0 -0 -0 -0 0 0 0 0 0 0 0 0 0 0 0 0 0 0 0 0 0
0 0 0 -0 -0 -0 -0 0 0 -0 0 -0 0 0 0 0 0 0 0 0 0 0 0 0 0 0 0 0 0 0 0 0
0 0 0 0 0 -0 0 0 0 0 0 0 0 0 0 0 0 0 0 0 0 0 0 0 0 0 0 0 0 0 0 0
0 0 0 0 0 -0 0 0 0 0 0 0 0 0 0 0 0 0 0 0 0 0 0 0 0 0 0 0 0 0 0 0
0 0 0 0 0 0 0 0 0 0 0 0 0 0 0 0 0 0 0 0 0 0 0 0 0 0 0 0 0 0 0 0
Wind_Speed_500mb
72 72 60 55 54 52 46 43 44 50 58 64 72 69 81 83 82 81 90 101 100 100 96 95 83 82 82 73 64 53 47 42
75 69 57 53 47 43 40 40 42 48 56 65 67 74 79 85 83 83 88 90 94 88 92 92 88 79 70 58 55 49 46 44
73 64 53 47 38 39 39 39 34 41 45 62 63 68 56 72 74 77 76 79 80 79 74 69 66 59 52 55 55 45 57 58
71 59 51 44 34 25 25 25 33 42 42 66 69 67 57 62 60 57 57 56 62 58 62 58 56 54 55 56 58 62 51 46
67 57 48 38 27 13 9 26 34 40 64 71 64 61 57 50 48 45 52 62 55 61 65 56 58 63 65 68 64 57 51 44
68 56 47 36 23 11 25 24 36 43 57 65 63 56 51 48 53 57 59 65 70 68 66 69 69 72 70 63 58 52 47 41
61 53 47 40 32 21 28 32 38 45 52 54 64 59 59 59 67 74 84 80 75 78 77 77 71 62 54 52 51 46 40 35
53 50 44 41 37 36 36 34 41 56 60 61 69 74 73 81 86 87 84 80 82 83 78 72 60 57 52 46 45 41 35 27
46 44 41 37 41 41 38 45 52 59 70 76 78 84 91 90 89 90 89 88 83 77 70 63 56 52 48 42 38 34 30 22
39 38 38 41 39 47 56 57 63 69 72 75 81 88 91 94 93 91 86 79 75 67 61 59 54 45 39 33 31 27 22 17
40 38 42 43 40 51 61 66 71 69 74 78 83 90 95 91 88 84 78 77 67 63 54 48 47 38 33 27 22 19 17 12
45 48 45 45 48 62 65 69 67 70 75 81 83 82 80 77 76 75 71 67 61 55 47 40 35 33 26 23 18 13 10 8
54 58 60 65 71 77 79 74 75 76 77 74 70 71 71 67 66 63 59 56 52 47 44 36 30 25 20 15 10 8 7 6
49 53 58 61 68 78 77 70 69 70 73 71 68 63 58 55 54 50 45 42 42 36 34 31 24 18 13 9 10 9 6 4
40 49 53 53 55 60 60 61 61 63 61 58 56 54 49 44 41 39 35 33 34 32 26 21 16 13 10 11 11 8 5 4
27 32 36 37 39 40 40 39 45 48 48 46 44 42 41 37 32 28 28 21 19 19 15 12 13 10 9 9 7 5 5 7
22 25 29 30 32 33 31 26 29 34 34 31 26 24 25 25 28 29 24 19 16 14 11 8 7 9 10 10 9 8 9 11
19 21 24 26 27 29 27 23 18 20 24 19 14 15 17 16 16 18 24 21 15 13 11 10 10 12 14 13 11 13 16 16
18 20 20 21 22 23 25 22 18 16 13 11 9 9 9 8 8 8 9 11 11 15 14 17 17 17 17 17 19 18 18 22
20 19 16 16 15 14 16 18 16 12 6 2 1 5 9 12 14 12 10 10 13 15 16 20 21 22 22 23 23 24 25 29
Wind_Direction_500mb
313 313 314 304 295 291 273 254 236 219 217 219 227 230 233 233 236 233 225 215 211 204 206 203 205 207 199 198 195 188 187 195
321 324 316 302 298 290 279 253 229 220 211 213 222 227 229 228 228 227 222 215 211 203 194 195 197 190 184 176 169 168 180 181
330 330 324 314 297 281 273 247 220 219 213 212 221 217 228 218 221 220 218 210 206 194 190 178 172 169 164 165 168 176 167 161
341 341 335 328 321 297 276 227 200 203 203 207 207 215 219 218 215 215 209 200 185 179 170 158 151 160 161 164 157 155 146 144
348 354 354 350 347 338 195 188 192 198 193 192 196 201 203 202 197 192 190 174 163 157 152 154 160 162 156 152 143 141 145 143
358 4 14 18 28 81 144 168 179 188 180 177 178 181 179 171 167 161 163 163 156 157 156 154 156 154 148 140 144 145 144 145
8 16 29 39 52 84 123 149 164 166 164 160 159 158 154 152 153 153 153 151 156 155 151 148 142 130 140 144 141 145 144 148
18 28 40 56 72 87 106 126 141 140 141 146 150 148 148 152 150 151 149 149 149 145 140 130 134 141 142 144 142 143 140 145
28 40 53 68 83 99 111 122 130 133 137 142 145 145 146 147 146 145 141 143 136 127 124 131 143 143 143 142 142 140 144 148
39 52 63 75 90 102 108 118 124 127 132 137 140 141 142 140 139 136 138 128 122 124 134 148 142 141 136 143 143 142 140 150
53 63 77 86 97 104 109 115 116 124 128 133 135 134 132 132 134 130 128 122 130 140 143 141 134 135 139 141 141 149 146 138
59 72 80 89 93 100 105 106 116 121 123 125 128 128 127 127 124 121 121 135 139 138 135 134 135 139 147 152 152 144 141 140
69 78 88 93 93 95 100 109 111 115 118 120 120 120 119 118 121 134 137 137 137 138 136 139 146 152 151 147 147 148 162 163
74 83 88 94 100 105 109 111 113 116 116 114 112 113 119 124 130 133 136 137 135 139 146 150 147 144 147 155 157 155 163 174
84 89 92 96 100 104 110 110 110 112 118 121 122 125 128 130 131 132 135 141 144 149 147 145 151 164 170 166 161 166 188 243
94 95 98 102 102 104 109 118 118 118 120 124 125 128 130 129 125 128 129 127 139 148 158 173 180 180 175 173 181 209 248 275
112 112 112 112 111 111 113 120 113 114 116 115 116 124 135 142 147 152 158 155 163 180 191 200 220 215 207 206 223 240 273 295
137 135 131 129 126 123 121 124 119 119 119 115 122 138 149 157 166 169 171 179 193 203 222 238 245 230 223 230 254 280 289 294
159 151 144 143 141 139 138 138 139 141 127 104 91 131 153 165 184 213 223 219 221 237 249 258 259 248 247 252 259 269 287 292
172 170 164 159 157 160 160 159 162 167 176 161 77 188 197 203 207 212 221 238 257 266 266 261 252 244 246 257 269 280 283 286
Wind_Speed_850mb
72 72 60 55 54 52 46 43 44 50 58 64 72 69 81 83 82 81 90 101 100 100 96 95 83 82 82 73 64 53 47 42
75 69 57 53 47 43 40 40 42 48 56 65 67 74 79 85 83 83 88 90 94 88 92 92 88 79 70 58 55 49 46 44
73 64 53 47 38 39 39 39 34 41 45 62 63 68 56 72 74 77 76 79 80 79 74 69 66 59 52 55 55 45 57 58
71 59 51 44 34 25 25 25 33 42 42 66 69 67 57 62 60 57 57 56 62 58 62 58 56 54 55 56 58 62 51 46
67 57 48 38 27 13 9 26 34 40 64 71 64 61 57 50 48 45 52 62 55 61 65 56 58 63 65 68 64 57 51 44
68 56 47 36 23 11 25 24 36 43 57 65 63 56 51 48 53 57 59 65 70 68 66 69 69 72 70 63 58 52 47 41
61 53 47 40 32 21 28 32 38 45 52 54 64 59 59 59 67 74 84 80 75 78 77 77 71 62 54 52 51 46 40 35
53 50 44 41 37 36 36 34 41 56 60 61 69 74 73 81 86 87 84 80 82 83 78 72 60 57 52 46 45 41 35 27
46 44 41 37 41 41 38 45 52 59 70 76 78 84 91 90 89 90 89 88 83 77 70 63 56 52 48 42 38 34 30 22
39 38 38 41 39 47 56 57 63 69 72 75 81 88 91 94 93 91 86 79 75 67 61 59 54 45 39 33 31 27 22 17
40 38 42 43 40 51 61 66 71 69 74 78 83 90 95 91 88 84 78 77 67 63 54 48 47 38 33 27 22 19 17 12
45 48 45 45 48 62 65 69 67 70 75 81 83 82 80 77 76 75 71 67 61 55 47 40 35 33 26 23 18 13 10 8
54 58 60 65 71 77 79 74 75 76 77 74 70 71 71 67 66 63 59 56 52 47 44 36 30 25 20 15 10 8 7 6
49 53 58 61 68 78 77 70 69 70 73 71 68 63 58 55 54 50 45 42 42 36 34 31 24 18 13 9 10 9 6 4
40 49 53 53 55 60 60 61 61 63 61 58 56 54 49 44 41 39 35 33 34 32 26 21 16 13 10 11 11 8 5 4
27 32 36 37 39 40 40 39 45 48 48 46 44 42 41 37 32 28 28 21 19 19 15 12 13 10 9 9 7 5 5 7
22 25 29 30 32 33 31 26 29 34 34 31 26 24 25 25 28 29 24 19 16 14 11 8 7 9 10 10 9 8 9 11
19 21 24 26 27 29 27 23 18 20 24 19 14 15 17 16 16 18 24 21 15 13 11 10 10 12 14 13 11 13 16 16
18 20 20 21 22 23 25 22 18 16 13 11 9 9 9 8 8 8 9 11 11 15 14 17 17 17 17 17 19 18 18 22
20 19 16 16 15 14 16 18 16 12 6 2 1 5 9 12 14 12 10 10 13 15 16 20 21 22 22 23 23 24 25 29
Wind_Direction_850mb
313 313 314 304 295 291 273 254 236 219 217 219 227 230 233 233 236 233 225 215 211 204 206 203 205 207 199 198 195 188 187 195
321 324 316 302 298 290 279 253 229 220 211 213 222 227 229 228 228 227 222 215 211 203 194 195 197 190 184 176 169 168 180 181
330 330 324 314 297 281 273 247 220 219 213 212 221 217 228 218 221 220 218 210 206 194 190 178 172 169 164 165 168 176 167 161
341 341 335 328 321 297 276 227 200 203 203 207 207 215 219 218 215 215 209 200 185 179 170 158 151 160 161 164 157 155 146 144
348 354 354 350 347 338 195 188 192 198 193 192 196 201 203 202 197 192 190 174 163 157 152 154 160 162 156 152 143 141 145 143
358 4 14 18 28 81 144 168 179 188 180 177 178 181 179 171 167 161 163 163 156 157 156 154 156 154 148 140 144 145 144 145
8 16 29 39 52 84 123 149 164 166 164 160 159 158 154 152 153 153 153 151 156 155 151 148 142 130 140 144 141 145 144 148
18 28 40 56 72 87 106 126 141 140 141 146 150 148 148 152 150 151 149 149 149 145 140 130 134 141 142 144 142 143 140 145
28 40 53 68 83 99 111 122 130 133 137 142 145 145 146 147 146 145 141 143 136 127 124 131 143 143 143 142 142 140 144 148
39 52 63 75 90 102 108 118 124 127 132 137 140 141 142 140 139 136 138 128 122 124 134 148 142 141 136 143 143 142 140 150
53 63 77 86 97 104 109 115 116 124 128 133 135 134 132 132 134 130 128 122 130 140 143 141 134 135 139 141 141 149 146 138
59 72 80 89 93 100 105 106 116 121 123 125 128 128 127 127 124 121 121 135 139 138 135 134 135 139 147 152 152 144 141 140
69 78 88 93 93 95 100 109 111 115 118 120 120 120 119 118 121 134 137 137 137 138 136 139 146 152 151 147 147 148 162 163
74 83 88 94 100 105 109 111 113 116 116 114 112 113 119 124 130 133 136 137 135 139 146 150 147 144 147 155 157 155 163 174
84 89 92 96 100 104 110 110 110 112 118 121 122 125 128 130 131 132 135 141 144 149 147 145 151 164 170 166 161 166 188 243
94 95 98 102 102 104 109 118 118 118 120 124 125 128 130 129 125 128 129 127 139 148 158 173 180 180 175 173 181 209 248 275
112 112 112 112 111 111 113 120 113 114 116 115 116 124 135 142 147 152 158 155 163 180 191 200 220 215 207 206 223 240 273 295
137 135 131 129 126 123 121 124 119 119 119 115 122 138 149 157 166 169 171 179 193 203 222 238 245 230 223 230 254 280 289 294
159 151 144 143 141 139 138 138 139 141 127 104 91 131 153 165 184 213 223 219 221 237 249 258 259 248 247 252 259 269 287 292
172 170 164 159 157 160 160 159 162 167 176 161 77 188 197 203 207 212 221 238 257 266 266 261 252 244 246 257 269 280 283 286